Location: Donald C. Martin Observatory
(38.3885°N, 82.3916°W)
Time: 09:01:29
(UTC-04:00)

Daily predictions for brighter satellites

Satellite Brightness Start Highest point End
(mag) Time Altitude Azimuth Time Altitude Azimuth Time Altitude Azimuth
Resurs 1-3 3.9 21:09:10 10° S 21:13:32 73° WSW 21:17:56 10° NNW
Cosmos 405 Rocket 2.9 21:11:13 10° S 21:14:50 50° E 21:18:33 10° NNE
DEBRIS 3.2 21:14:19 10° SW 21:17:09 83° SE 21:25:18 10° NE
Cosmos 1500 3.8 21:13:56 10° NNW 21:17:39 59° W 21:21:20 10° S
Meteor 1-19 Rocket 4.4 21:13:36 10° S 21:19:18 59° E 21:24:56 10° NNE
Cosmos 923 Rocket 4.1 21:15:41 10° SSW 21:21:00 85° ESE 21:26:20 10° NNE
Tiangong 2 1.4 21:19:58 10° WSW 21:23:08 72° NNW 21:26:19 10° ENE
Cosmos 1441 Rocket 3.9 21:20:23 10° SSE 21:23:43 32° E 21:27:04 10° NNE
ERS-1 Rocket 4.0 21:21:46 10° SE 21:26:03 29° ENE 21:30:20 10° N
Resurs 01 Rocket 2.8 21:23:03 10° S 21:27:17 44° W 21:31:32 10° NNW
CENTAUR R/B 3.2 21:20:41 10° NNW 21:28:43 89° WSW 21:37:12 10° SSE
Cosmos 1455 Rocket 3.6 21:24:31 10° NNW 21:28:49 59° W 21:33:04 10° S
Meteor 1-29 2.9 21:32:10 10° NNE 21:35:31 64° E 21:38:50 10° S
Nadezhda 1 Rocket 4.2 21:29:52 10° SSE 21:36:01 55° E 21:42:15 10° NNE
COSMOS 2406 3.6 21:35:37 10° SSW 21:41:19 71° WNW 21:47:02 10° NNE
Cosmos 2082 Rocket 3.7 21:41:51 13° SE 21:44:15 17° E 21:47:47 10° ENE
ASTRO E2 4.3 21:44:51 10° WSW 21:47:54 21° SSW 21:49:56 15° SSE
Cosmos 1743 3.3 21:46:24 10° NNW 21:50:15 59° W 21:54:05 10° S
CZ-4B DEB 2.7 21:48:37 11° S 21:51:23 73° W 21:54:23 10° NNW
Cosmos 2154 Rocket 4.4 21:46:34 10° N 21:52:43 48° E 21:57:43 15° SSE
Cosmos 2112 Rocket 4.2 21:48:21 10° SSW 21:53:34 75° WNW 21:58:47 10° NNE
Cosmos 1238 Rocket 4.1 21:48:38 10° S 21:55:21 75° E 22:01:51 10° N
Aureole 3 Rocket 3.9 21:50:55 10° SSW 21:57:25 71° W 22:02:01 10° N
ISS -2.1 21:54:46 10° WSW 21:57:52 37° NNW 22:00:59 10° NE
ASTEX 1 3.4 21:55:06 12° SSE 21:59:43 72° E 22:04:36 10° N
OAO 2 Rocket 3.4 21:56:51 10° W 22:01:41 58° S 22:05:08 19° ESE
Cosmos 1624 Rocket 4.5 21:57:13 10° N 22:02:19 46° ENE 22:05:37 21° SE
H-2A R/B 3.4 21:59:49 15° ESE 22:02:19 22° ENE 22:06:07 10° NNE
Helios 1A 4.0 21:59:48 10° S 22:03:49 43° W 22:07:51 10° NNW
SL-27 R/B 3.7 22:02:51 10° SW 22:06:23 46° WNW 22:09:55 10° N
Cosmos 967 Rocket 4.4 22:00:41 10° SSW 22:06:50 62° ESE 22:13:01 10° NE
Cosmos 2228 4.5 22:04:54 10° NNE 22:08:12 21° ENE 22:09:27 19° E
Cosmos 1939 Rocket 3.8 22:04:38 10° S 22:08:19 43° W 22:12:01 10° NNW
YAOGAN 6 2.7 22:06:34 17° S 22:09:08 71° W 22:12:39 10° NNW
Cosmos 921 Rocket 4.1 22:06:44 10° N 22:10:44 31° ENE 22:12:34 23° ESE
Cosmos 1666 3.6 22:09:14 10° NNW 22:12:50 45° W 22:16:14 11° SSW
Meteor 2-9 Rocket 4.3 22:08:43 10° NNW 22:14:14 77° W 22:19:12 14° S
Okean 1-7 Rocket 3.9 22:12:16 10° SSW 22:16:42 69° W 22:21:11 10° N
Cosmos 1892 Rocket 3.8 22:15:22 24° SSE 22:17:41 48° E 22:21:57 10° NNE
DNEPR-1 R/B 4.4 22:15:47 10° NW 22:19:54 46° WSW 22:22:54 19° S
Intercosmos 24 3.5 22:17:26 10° N 22:21:10 90° W 22:22:54 29° S
Cosmos 1833 Rocket 3.3 22:19:03 24° SE 22:21:20 33° ESE 22:26:19 10° NE
Cosmos 2056 Rocket 3.5 22:16:30 10° NNW 22:21:39 64° ENE 22:24:17 28° SE
NOSS 8 (E) 4.4 22:19:28 10° SSW 22:22:53 60° ESE 22:26:26 10° NE
CZ-3B Rocket 4.3 22:19:09 10° SSW 22:39:10 - ESE 22:21:32 16° SSE
Cosmos 1437 Rocket 2.6 22:19:49 10° N 22:23:40 75° E 22:25:17 33° SSE
Cosmos 2341 Rocket 4.1 22:19:15 10° N 22:25:35 64° E 22:29:28 25° SSE
MetOp-A 4.1 22:23:25 23° SSE 22:26:50 83° ENE 22:32:13 10° NNW
Cosmos 1606 Rocket 3.4 22:27:02 10° N 22:31:22 81° E 22:33:14 33° SSE
PSLV R/B 2.9 22:29:39 10° WNW 22:32:46 69° SSW 22:32:59 65° SSE
Cosmos 839 Rocket 4.5 22:28:40 10° NNW 22:35:17 68° ENE 22:39:48 27° SE
Cosmos 405 4.5 22:35:14 10° NNW 22:38:27 33° W 22:40:27 18° SSW
Cosmos 1025 Rocket 4.3 22:37:00 10° SSW 22:41:00 39° WNW 22:45:00 10° N
Cosmos 1726 Rocket 3.4 22:36:46 10° N 22:41:06 86° E 22:42:37 40° S
USA 245 2.9 22:42:20 49° N 22:42:20 49° N 22:44:09 10° N
Cosmos 1515 3.7 22:40:59 33° SSW 22:42:35 76° W 22:46:25 10° N
COSMOS 2487 2.3 22:43:44 53° S 22:44:30 84° ESE 22:48:05 10° NNE
CZ-3A R/B 1.8 22:45:04 10° WSW 22:48:30 34° NW 22:48:50 32° NNW
Landsat 7 4.2 22:52:27 41° ESE 22:53:31 49° ENE 22:58:07 10° N
SPOT 1/Viking Rocket 3.5 22:51:40 40° SSE 22:53:33 78° ENE 22:58:42 10° N
Cosmos 1452 Rocket 3.9 22:48:29 10° N 22:53:37 50° ENE 22:55:04 39° ESE
YAOGAN 11 4.4 22:52:10 36° SSW 22:53:44 61° WSW 22:58:02 10° NNW
Cosmos 2181 Rocket 4.0 22:49:25 19° S 22:54:09 84° W 23:00:28 10° N
Cosmos 1980 Rocket 3.6 22:49:50 10° N 22:54:26 25° ENE 22:56:23 21° E
Cosmos 2058 Rocket 3.0 22:51:17 10° N 22:55:43 90° NW 22:56:51 50° S
Tiangong 2 2.6 22:57:12 10° WNW 23:00:09 35° N 23:00:58 29° NNE
ARGOS 3.4 22:58:32 31° S 23:01:03 64° WSW 23:06:28 10° NNW
ERS-1 Rocket 4.5 23:01:28 16° SSW 23:04:43 30° W 23:09:07 10° NW
USA 267 4.4 23:02:12 10° ENE 23:05:41 24° E 23:05:41 24° E
Terra 2.1 23:07:56 46° E 23:08:33 49° ENE 23:13:08 10° N
SPOT 5 3.4 23:09:29 35° SW 23:10:43 45° W 23:14:54 10° NNW
H-2A R/B 2.4 23:15:12 53° E 23:15:28 54° ENE 23:19:54 10° N
IGS 5A 3.7 23:18:14 55° ENE 23:18:14 55° ENE 23:22:10 10° N
Cosmos 468 4.4 23:17:24 53° S 23:18:39 80° ESE 23:23:57 10° NNE
Cosmos 1812 Rocket 4.1 23:14:25 10° N 23:18:32 45° ENE 23:18:32 45° ENE
Cosmos 864 Rocket 4.4 23:12:40 10° N 23:18:58 72° E 23:20:41 49° SSE
Meteor 2-21 4.3 23:17:13 10° N 23:23:17 84° E 23:24:52 52° SSE
Cosmos 1626 Rocket 3.4 23:26:20 80° WSW 23:26:26 81° W 23:30:47 10° N
Meteor 2-21 Rocket 4.3 23:21:17 10° N 23:27:21 73° E 23:28:37 55° SE
Cosmos 2082 Rocket 2.6 23:23:35 18° SW 23:27:46 60° WNW 23:33:22 10° NNE
Cosmos 2278 4.3 23:24:20 10° NNW 23:29:49 49° WSW 23:31:16 40° SSW
SL-19 R/B 3.9 23:27:12 10° NNE 23:32:33 81° ESE 23:33:15 67° S
Meteor 1-22 Rocket 4.0 23:28:34 10° N 23:33:55 89° E 23:34:40 68° S
ISS -0.2 23:34:09 10° NNW 23:35:07 11° NNW 23:36:04 10° N
SL-8 Rocket 4.4 23:30:02 10° NNW 23:36:09 57° W 23:38:28 37° SSW
USA 229 DEB 4.2 23:29:34 10° NNW 23:36:34 54° NE 23:39:05 38° ESE
USA 229 4.2 23:29:40 10° NNW 23:36:40 53° NE 23:39:12 38° ESE
H-2A R/B 2.8 23:40:27 35° SW 23:41:27 39° W 23:46:09 10° NNW
Cosmos 2366 rocket 4.0 23:35:52 10° NNW 23:41:59 70° W 23:43:33 50° SSW
Cosmos 158 Rocket 3.9 23:46:06 76° SSW 23:46:32 88° WNW 23:51:56 10° NNE
Meteor 1-4 Rocket 4.2 23:46:19 10° NNW 23:48:46 29° WNW 23:48:46 29° WNW
Cosmos 1697 Rocket 2.6 23:44:52 10° NNW 23:50:27 69° WSW 23:50:56 65° SW
Cosmos 2360 4.4 23:45:39 10° NNW 23:51:18 59° ENE 23:51:48 57° E
